[[{"header":{"parameterUnit":"m.s-1","parameterCategory":1,"la1":30.2991,"la2":30.254,"lo1":-89.0895,"lo2":-89.0444,"dy":0.0017,"dx":0.0017,"nx":28,"ny":28,"refTime":"2025-08-20T09:00:00:Z","depth":0,"parameterNumber":2,"parameterNumberName":"U-component_of_WINDS"},"data":[0,0,0,0,0,0,0,0,0,0,0,0,0,0,0,0,0,0,0,0,0,0,0,0,0,0,0,0,0,0,0,0,0,0,0,0,0,0,0,0,0,0,0,0,0,0,0,0,0,0,0,0,0,0,0,0,0,0,3.6244,3.6245,0,3.6345,3.6347,3.6348,3.6293,3.6291,3.6288,3.6285,3.6394,3.6399,3.6404,0,0,0,0,0,0,0,0,0,0,0,0,0,3.6003,3.6008,3.6244,3.6245,3.6246,3.6345,3.6347,3.6348,3.6294,3.629,3.6287,3.6284,3.6392,3.6398,3.6405,0,0,0,0,0,0,0,0,0,0,0,0,0,3.6107,3.6009,3.6243,3.6231,3.6231,3.6345,3.6347,3.6348,3.6295,3.629,3.6286,3.6282,3.639,3.6398,3.6406,3.6539,0,0,3.6431,3.6434,0,0,0,0,0,0,0,0,3.6101,3.6116,3.6231,3.6232,3.6232,3.6302,3.6302,3.6413,3.6296,3.6271,3.6285,3.628,3.6367,3.6377,3.6405,3.6545,3.6549,3.6432,3.6437,3.644,3.6442,0,0,0,0,0,0,0,3.6094,3.6111,3.6284,3.6233,3.6234,3.622,3.6231,3.6322,3.6341,3.6272,3.6269,3.6281,3.6366,3.6397,3.6407,3.6551,3.6431,3.6439,3.6444,3.6447,3.68,3.6804,0,0,0,0,0,0,3.6087,3.6105,3.6281,3.6287,3.6155,3.6228,3.6239,3.6284,3.634,3.6344,3.6285,3.6278,3.6385,3.6398,3.6411,3.6567,3.644,3.6448,3.6452,3.6796,3.6801,3.6806,0,0,0,0,0,0,3.6082,3.6103,3.6277,3.6195,3.6216,3.6237,3.6287,3.6288,3.6319,3.6349,3.6352,3.6313,3.6383,3.6399,3.6506,3.657,3.6451,3.6459,3.679,3.6797,3.6803,3.6884,0,0,0,0,0,0,3.6075,3.6102,3.6153,3.6197,3.6221,3.6371,3.6291,3.6293,3.6333,3.6326,3.6376,3.6381,3.6381,3.6494,3.6515,3.658,3.6465,3.6785,3.6793,3.6801,3.6876,3.6892,3.6907,0,0,0,0,0,3.6067,3.6173,3.6156,3.6177,3.6285,3.6374,3.6388,3.6385,3.6338,3.6389,3.6408,3.6379,3.6561,3.6506,3.6528,3.6597,3.6781,3.6791,3.6801,3.6868,3.6889,3.6907,0,0,0,0,0,0,3.6139,3.6179,3.616,3.6284,3.6326,3.6365,3.643,3.6408,3.6465,3.6456,3.645,3.6462,3.6573,3.6596,3.6534,3.6726,3.6663,3.6678,3.6707,3.6727,3.6743,3.6734,3.6472,0,0,0,0,0,3.6169,3.6238,3.6269,3.6375,3.6397,3.641,3.6449,3.6442,3.6486,3.6504,3.6531,3.6575,3.6642,3.6686,3.6749,3.6879,3.6887,3.6937,3.6952,3.6965,3.6978,3.7044,3.7065,3.6839,3.6839,3.6839,0,0,3.6232,3.6262,3.6307,3.639,3.6422,3.6493,3.6425,3.6504,3.6556,3.6517,3.6618,3.6639,3.6688,3.6806,3.6859,3.6828,3.7042,3.6978,3.6988,3.6993,3.7056,3.7078,3.7097,3.6846,3.6844,3.6843,0,0,3.6383,3.6414,3.6503,3.6535,3.6583,3.659,3.6612,3.6654,3.6665,3.6767,3.6737,3.6799,3.6915,3.695,3.6983,3.7142,3.7117,3.7164,3.7245,3.731,3.7327,3.7343,3.7397,3.7417,3.7176,3.7177,3.7177,0,3.6456,3.656,3.6553,3.6632,3.6668,3.6633,3.6723,3.6755,3.6822,3.6848,3.6812,3.6954,3.6985,3.7108,3.7146,3.7176,3.7198,3.7157,3.7325,3.7341,3.7356,3.7407,3.7427,3.7182,3.7181,3.7181,3.718,0,3.6646,3.6719,3.6785,3.6847,3.6891,3.6976,3.698,3.7026,3.7015,3.7026,3.7127,3.7163,3.723,3.726,3.7251,3.7381,3.736,3.7325,3.7261,3.7382,3.743,3.745,3.7189,3.7187,3.7186,3.7184,0,0,3.6846,3.69,3.6924,3.695,3.6998,3.7055,3.7137,3.72,3.7238,3.7286,3.7353,3.7449,3.7416,3.7453,3.7448,3.7505,3.7624,3.7463,3.7464,3.7489,3.7766,3.779,3.7813,3.7608,3.7612,3.7615,3.776,0,3.6998,3.7139,3.7132,3.7265,3.733,3.7295,3.7366,3.7403,3.7415,3.7472,3.7486,3.7553,3.7505,3.7527,3.7582,3.7598,3.768,3.7588,3.7669,3.7672,3.7656,3.7838,3.7865,3.8001,3.778,3.7783,3.7785,0,3.7194,3.7243,3.7381,3.7415,3.7442,3.7506,3.7562,3.7618,3.7658,3.7662,3.7702,3.7686,3.7768,3.7702,3.7814,3.7752,3.7785,3.7797,3.7803,3.7809,3.7735,3.7847,3.8045,3.8064,3.7815,3.7813,3.7811,0,3.7322,3.7423,3.7517,3.7541,3.7585,3.763,3.765,3.7687,3.7724,3.7773,3.7797,3.7857,3.7889,3.7935,3.7935,3.7888,3.8046,3.7982,3.8051,3.8051,3.8085,3.8083,3.8288,3.811,3.811,3.811,3.8109,0,3.749,3.7575,3.7575,3.7633,3.7726,3.7718,3.781,3.7826,3.7858,3.7918,3.7893,3.795,3.7948,3.8005,3.8007,3.8097,3.8112,3.8117,3.8116,3.8118,3.8117,3.8138,3.8128,3.8115,3.8114,3.8113,3.8112,0,3.7649,3.7653,3.7752,3.7784,3.7794,3.7861,3.7888,3.7942,3.795,3.8026,3.8043,3.8056,3.8122,3.8127,3.8205,3.8205,3.8313,3.8303,3.8299,3.8296,3.8364,3.8356,3.8589,3.8617,3.8423,3.8425,3.8426,0,3.7755,3.7819,3.7856,3.7893,3.7915,3.7976,3.8013,3.8006,3.8046,3.8094,3.8142,3.8205,3.8255,3.8362,3.8379,3.8437,3.8426,3.8504,3.8435,3.8434,3.8424,3.8419,3.8424,3.8517,3.8519,3.8521,3.8522,0,3.7942,3.794,3.7993,3.8046,3.8089,3.8132,3.8171,3.8203,3.8201,3.8246,3.8312,3.835,3.8427,3.8489,3.8545,3.8566,3.8544,3.8543,3.8562,3.8564,3.8557,3.8558,3.8332,3.8538,3.8536,3.8535,3.8534,3.8534,3.8076,3.8129,3.8162,3.8221,3.8249,3.8285,3.8336,3.8349,3.8403,3.8463,3.8456,3.8528,3.8564,3.8636,3.8662,3.8718,3.8692,3.8719,3.8726,3.8732,3.8737,3.8549,3.8729,3.8728,3.8728,3.8727,3.8727,0,3.8259,3.8277,3.8332,3.8385,3.8431,3.8403,3.8444,3.8484,3.8547,3.8582,3.863,3.8704,3.8763,3.8783,3.884,3.8881,3.8871,3.8896,3.8892,3.8896,3.8759,3.8736,3.8902,3.8902,3.8902,3.8902,3.8902,3.8902,3.8359,3.8447,3.8447,3.8547,3.8566,3.8634,3.8659,3.8691,3.8718,3.8801,3.8848,3.886,3.8888,3.8946,3.8999,3.9003,3.9024,3.9052,3.9052,3.8924,3.8906,3.8889,3.8867,3.9058,3.9058,3.9184,3.9185,3.9186]},{"header":{"parameterUnit":"m.s-1","parameterCategory":1,"la1":30.2991,"la2":30.254,"lo1":-89.0895,"lo2":-89.0444,"dy":0.0017,"dx":0.0017,"nx":28,"ny":28,"refTime":"2025-08-20T09:00:00:Z","depth":0,"parameterNumber":3,"parameterNumberName":"V-component_of_WINDS"},"data":[0,0,0,0,0,0,0,0,0,0,0,0,0,0,0,0,0,0,0,0,0,0,0,0,0,0,0,0,0,0,0,0,0,0,0,0,0,0,0,0,0,0,0,0,0,0,0,0,0,0,0,0,0,0,0,0,0,0,2.3882,2.3882,0,2.3957,2.3958,2.3958,2.3959,2.3958,2.3957,2.3956,2.4029,2.4032,2.4035,0,0,0,0,0,0,0,0,0,0,0,0,0,2.3733,2.3736,2.3881,2.3882,2.3883,2.3957,2.3958,2.3959,2.3959,2.3958,2.3957,2.3956,2.4028,2.4032,2.4035,0,0,0,0,0,0,0,0,0,0,0,0,0,2.3802,2.3737,2.3881,2.3893,2.3894,2.3956,2.3958,2.3959,2.3959,2.3958,2.3957,2.3955,2.4027,2.4031,2.4035,2.409,0,0,2.4048,2.405,0,0,0,0,0,0,0,0,2.3798,2.3807,2.389,2.3892,2.3894,2.3947,2.3932,2.4003,2.396,2.3935,2.3956,2.3955,2.4003,2.4009,2.4026,2.4094,2.4097,2.4049,2.4051,2.4053,2.4054,0,0,0,0,0,0,0,2.3793,2.3804,2.3911,2.3891,2.3894,2.3892,2.39,2.3946,2.3976,2.3937,2.3937,2.3946,2.4004,2.4022,2.4028,2.4098,2.4049,2.4052,2.4055,2.4057,2.4212,2.4213,0,0,0,0,0,0,2.3787,2.38,2.3909,2.3913,2.3842,2.3896,2.3905,2.3931,2.3975,2.3981,2.3947,2.3946,2.4015,2.4023,2.403,2.4096,2.4053,2.4057,2.406,2.421,2.4212,2.4214,0,0,0,0,0,0,2.3784,2.3797,2.3906,2.3857,2.3871,2.39,2.393,2.3934,2.3952,2.3983,2.3988,2.3961,2.4015,2.4024,2.4075,2.4099,2.4059,2.4063,2.4208,2.4211,2.4213,2.4228,0,0,0,0,0,0,2.3779,2.3795,2.3818,2.3857,2.3873,2.3951,2.3931,2.3936,2.396,2.3959,2.3997,2.4002,2.4014,2.4069,2.4079,2.4104,2.4066,2.4206,2.4209,2.4212,2.4226,2.4231,2.4235,0,0,0,0,0,2.3774,2.3819,2.3819,2.3832,2.3902,2.3952,2.3961,2.3975,2.3962,2.3984,2.4003,2.4001,2.4094,2.4074,2.4086,2.4112,2.4205,2.4208,2.4212,2.4224,2.423,2.4235,0,0,0,0,0,0,2.378,2.3824,2.3825,2.3884,2.3914,2.3952,2.398,2.3982,2.4016,2.4013,2.4028,2.4036,2.4087,2.4104,2.4081,2.4166,2.4148,2.4154,2.4153,2.4159,2.4163,2.4158,2.407,0,0,0,0,0,2.3788,2.3827,2.3863,2.3911,2.3927,2.3951,2.3973,2.3981,2.4013,2.4026,2.4049,2.4078,2.4114,2.4138,2.4172,2.4228,2.4236,2.4252,2.4257,2.426,2.4265,2.4294,2.4302,2.4225,2.4225,2.4225,0,0,2.3806,2.3834,2.3858,2.3913,2.3938,2.3975,2.3962,2.4003,2.403,2.4031,2.4081,2.4099,2.4132,2.4186,2.421,2.4202,2.4288,2.4265,2.4268,2.4271,2.4299,2.4306,2.4312,2.4228,2.4227,2.4227,0,0,2.3856,2.3883,2.3925,2.395,2.3988,2.4004,2.4014,2.4051,2.4064,2.4114,2.4115,2.4147,2.4209,2.4233,2.4253,2.4311,2.4309,2.4322,2.4346,2.4374,2.438,2.4386,2.4405,2.4412,2.4326,2.4327,2.4327,0,2.3873,2.3931,2.3947,2.3988,2.4011,2.4015,2.4057,2.408,2.4127,2.4142,2.4132,2.4209,2.4232,2.429,2.4304,2.4321,2.4331,2.4317,2.4378,2.4384,2.4389,2.4408,2.4415,2.4328,2.4328,2.4327,2.4327,0,2.3948,2.3989,2.4018,2.4064,2.4091,2.4132,2.4153,2.4177,2.4183,2.4199,2.4249,2.4277,2.4316,2.4331,2.4336,2.4389,2.4383,2.4376,2.4357,2.4397,2.4415,2.4422,2.4329,2.4329,2.4329,2.4328,0,0,2.4005,2.4059,2.4069,2.4089,2.4131,2.4161,2.4202,2.4242,2.4262,2.4294,2.4327,2.4379,2.4372,2.4395,2.4403,2.4428,2.447,2.4418,2.4419,2.4425,2.4528,2.4533,2.4541,2.447,2.4471,2.4472,2.4525,0,2.4059,2.4133,2.4148,2.4211,2.4247,2.4251,2.4286,2.4314,2.4329,2.4361,2.4378,2.4414,2.4403,2.4417,2.4442,2.446,2.4491,2.4457,2.4499,2.45,2.449,2.455,2.4555,2.4604,2.4532,2.4533,2.4534,0,2.4133,2.4167,2.4234,2.4269,2.4285,2.4316,2.4353,2.4385,2.4416,2.4425,2.445,2.4455,2.4495,2.4476,2.453,2.4506,2.4524,2.4536,2.4538,2.4542,2.4519,2.4555,2.462,2.4627,2.4545,2.4545,2.4544,0,2.4165,2.4228,2.4276,2.4294,2.4336,2.4358,2.4376,2.4406,2.4429,2.4461,2.4475,2.4511,2.453,2.4557,2.457,2.4555,2.4623,2.4605,2.4631,2.463,2.4645,2.4643,2.4712,2.4658,2.4658,2.4658,2.4657,0,2.4224,2.4264,2.4292,2.4321,2.4366,2.4381,2.4425,2.4442,2.4469,2.45,2.4505,2.4534,2.4551,2.4582,2.4593,2.4636,2.4644,2.4652,2.4654,2.4651,2.465,2.4662,2.4659,2.466,2.4659,2.4659,2.4658,0,2.4268,2.4288,2.434,2.4377,2.4386,2.4418,2.4448,2.4475,2.4491,2.4531,2.4541,2.4565,2.4601,2.4618,2.4663,2.467,2.4718,2.4718,2.4708,2.4708,2.4733,2.473,2.4811,2.4822,2.4761,2.4762,2.4763,0,2.4304,2.4335,2.4375,2.4397,2.4416,2.4451,2.4475,2.449,2.4514,2.4551,2.4574,2.4611,2.4642,2.4699,2.472,2.4754,2.4754,2.478,2.4759,2.4755,2.4753,2.475,2.4753,2.4784,2.4784,2.4785,2.4785,0,2.4364,2.4372,2.4406,2.4444,2.4471,2.4501,2.453,2.4547,2.4568,2.4594,2.4632,2.4655,2.4701,2.4737,2.4773,2.479,2.479,2.4792,2.48,2.4796,2.4788,2.4792,2.4717,2.479,2.4789,2.4789,2.4789,2.4789,2.4404,2.4432,2.4464,2.4501,2.4525,2.4551,2.4579,2.4598,2.463,2.467,2.4677,2.4717,2.4745,2.4793,2.4811,2.4842,2.4835,2.4846,2.4849,2.4851,2.4852,2.4784,2.4848,2.4848,2.4848,2.4848,2.4848,0,2.4464,2.4484,2.4518,2.4559,2.4588,2.4588,2.4619,2.4643,2.4679,2.4706,2.4736,2.4779,2.4814,2.4837,2.4871,2.4891,2.4892,2.4899,2.4897,2.4901,2.4857,2.4846,2.4898,2.4898,2.4898,2.4898,2.4898,2.4898,2.4498,2.4544,2.4556,2.4613,2.4633,2.4673,2.4691,2.4715,2.4737,2.4785,2.4814,2.4829,2.4854,2.4891,2.4922,2.4927,2.4939,2.4947,2.4952,2.491,2.4904,2.4899,2.489,2.495,2.495,2.4994,2.4994,2.4994]}]]